This is the latest recevied weather packets stored in our database for station/object HB9CEY-10. If no packets are shown the sender has not sent any weather packets the latest 10 day(s).
| Time | Temp. | Humidity | Pressure | Rain* | Wind** | Luminosity | Snow |
|---|---|---|---|---|---|---|---|
| 1777579124 | 12.78° C | 34% | 1024.1 hPa | - | - | - | - |
| 1777578224 | 12.78° C | 34% | 1023.9 hPa | - | - | - | - |
| 1777577324 | 13.33° C | 34% | 1023.7 hPa | - | - | - | - |
| 1777576424 | 13.33° C | 33% | 1023.5 hPa | - | - | - | - |
| 1777575524 | 13.89° C | 33% | 1023.4 hPa | - | - | - | - |
| 1777574624 | 13.89° C | 33% | 1023.1 hPa | - | - | - | - |
| 1777573724 | 14.44° C | 32% | 1023 hPa | - | - | - | - |
| 1777572824 | 14.44° C | 32% | 1022.9 hPa | - | - | - | - |
| 1777571924 | 15° C | 32% | 1022.7 hPa | - | - | - | - |
| 1777571024 | 15.56° C | 32% | 1022.6 hPa | - | - | - | - |
| 1777570124 | 15.56° C | 32% | 1022.5 hPa | - | - | - | - |
| 1777569223 | 16.11° C | 32% | 1022.5 hPa | - | - | - | - |
| 1777568323 | 16.67° C | 31% | 1022.5 hPa | - | - | - | - |
| 1777567423 | 16.67° C | 31% | 1022.4 hPa | - | - | - | - |
| 1777566523 | 16.67° C | 30% | 1022.4 hPa | - | - | - | - |
| 1777565623 | 17.22° C | 30% | 1022.2 hPa | - | - | - | - |
| 1777564723 | 17.22° C | 31% | 1022 hPa | - | - | - | - |
| 1777563823 | 17.22° C | 31% | 1022 hPa | - | - | - | - |
| 1777562923 | 17.22° C | 30% | 1021.9 hPa | - | - | - | - |
| 1777562023 | 17.22° C | 30% | 1022 hPa | - | - | - | - |
| 1777561123 | 17.22° C | 30% | 1021.9 hPa | - | - | - | - |
| 1777560223 | 17.78° C | 30% | 1021.9 hPa | - | - | - | - |
| 1777559323 | 17.78° C | 30% | 1022 hPa | - | - | - | - |
| 1777558423 | 17.78° C | 30% | 1022 hPa | - | - | - | - |
| 1777557523 | 17.78° C | 30% | 1022.1 hPa | - | - | - | - |
* Rain since midnight (hover to see other rain measurements)
** Current wind speed in m/s (hover to see current wind gust speed)